EN

Hourly Weather Rezekne

Today, 28 November, Saturday

Time Temperature Precipitation Wind Pressure Humidity
00:00 -2°C° 0.1 mm 3 mps 746 mmHg 93%
01:00 -2°C° 0.1 mm 3 mps 746 mmHg 93%
02:00 -2°C° 0.1 mm 3 mps 746 mmHg 94%
03:00 -2°C° 0.4 mm 3 mps 747 mmHg 95%
04:00 -2°C° 0.4 mm 4 mps 747 mmHg 95%
05:00 -2°C° 0.4 mm 4 mps 747 mmHg 96%
06:00 -2°C° 0.2 mm 4 mps 747 mmHg 96%
07:00 -2°C° 0.2 mm 4 mps 748 mmHg 96%
08:00 -1°C° 0.2 mm 4 mps 748 mmHg 96%
09:00 -1°C° 0.1 mm 4 mps 748 mmHg 96%
10:00 -1°C° 0.1 mm 4 mps 749 mmHg 96%
11:00 -1°C° 0.1 mm 4 mps 749 mmHg 95%
12:00 -1°C° 0.1 mm 4 mps 749 mmHg 94%
13:00 -1°C° 0.1 mm 4 mps 750 mmHg 93%
14:00 -1°C° 0.1 mm 4 mps 750 mmHg 92%
15:00 -1°C° 0 mm 4 mps 750 mmHg 94%
16:00 -1°C° 0 mm 4 mps 750 mmHg 95%
17:00 -2°C° 0 mm 4 mps 751 mmHg 96%
18:00 -2°C° 0.1 mm 4 mps 751 mmHg 96%
19:00 -2°C° 0.1 mm 4 mps 751 mmHg 96%
20:00 -2°C° 0.1 mm 4 mps 752 mmHg 96%
21:00 -1°C° 0.2 mm 3 mps 752 mmHg 96%
22:00 -1°C° 0.2 mm 3 mps 752 mmHg 96%
23:00 -1°C° 0.2 mm 3 mps 752 mmHg 96%

Tomorrow, 29 November, Sunday

Time Temperature Precipitation Wind Pressure Humidity
00:00 -1°C° 0.1 mm 3 mps 752 mmHg 96%
01:00 -2°C° 0.1 mm 3 mps 753 mmHg 95%
02:00 -2°C° 0.1 mm 2 mps 753 mmHg 95%
03:00 -2°C° 0 mm 2 mps 753 mmHg 94%
04:00 -2°C° 0 mm 2 mps 753 mmHg 94%
05:00 -2°C° 0 mm 2 mps 753 mmHg 93%
06:00 -2°C° 0 mm 2 mps 753 mmHg 93%
07:00 -2°C° 0 mm 3 mps 753 mmHg 93%
08:00 -4°C° 0 mm 3 mps 753 mmHg 94%
09:00 -2°C° 0 mm 3 mps 753 mmHg 92%
10:00 -2°C° 0 mm 3 mps 753 mmHg 90%
11:00 -1°C° 0 mm 3 mps 753 mmHg 88%
12:00 -1°C° 0 mm 3 mps 753 mmHg 88%
13:00 -1°C° 0 mm 3 mps 753 mmHg 87%
14:00 -1°C° 0 mm 3 mps 753 mmHg 87%
15:00 -1°C° 0 mm 3 mps 752 mmHg 87%
16:00 -2°C° 0 mm 3 mps 752 mmHg 87%
17:00 -2°C° 0 mm 3 mps 752 mmHg 87%
18:00 -2°C° 0.1 mm 3 mps 751 mmHg 90%
19:00 -2°C° 0.1 mm 3 mps 751 mmHg 92%
20:00 -2°C° 0.1 mm 3 mps 751 mmHg 94%
21:00 -2°C° 0.5 mm 3 mps 750 mmHg 95%
22:00 -2°C° 0.5 mm 3 mps 750 mmHg 95%
23:00 -4°C° 0.5 mm 3 mps 750 mmHg 96%

Day after tomorrow, 30 November, Monday

Time Temperature Precipitation Wind Pressure Humidity
00:00 -3°C° 0.4 mm 2 mps 750 mmHg 96%
01:00 -3°C° 0.4 mm 2 mps 750 mmHg 97%
02:00 -1°C° 0.4 mm 1 mps 749 mmHg 97%
03:00 -1°C° 0 mm 1 mps 749 mmHg 97%
04:00 -1°C° 0 mm 1 mps 749 mmHg 97%
05:00 -1°C° 0 mm 1 mps 749 mmHg 97%
06:00 -1°C° 0 mm 1 mps 749 mmHg 97%
07:00 -4°C° 0 mm 2 mps 749 mmHg 97%
08:00 -4°C° 0 mm 2 mps 749 mmHg 96%
09:00 -3°C° 0 mm 2 mps 750 mmHg 95%
10:00 -3°C° 0 mm 2 mps 750 mmHg 93%
11:00 -2°C° 0 mm 3 mps 750 mmHg 91%
12:00 -2°C° 0 mm 3 mps 750 mmHg 89%
13:00 -2°C° 0 mm 3 mps 750 mmHg 88%
14:00 -2°C° 0 mm 3 mps 750 mmHg 86%
15:00 -3°C° 0.1 mm 4 mps 750 mmHg 89%
16:00 -3°C° 0.1 mm 4 mps 750 mmHg 91%
17:00 -4°C° 0.1 mm 4 mps 750 mmHg 94%
18:00 -4°C° 0.3 mm 4 mps 751 mmHg 93%
19:00 -5°C° 0.3 mm 5 mps 751 mmHg 93%
20:00 -4°C° 0.3 mm 5 mps 751 mmHg 92%
21:00 -5°C° 0 mm 5 mps 751 mmHg 91%
22:00 -4°C° 0 mm 4 mps 752 mmHg 90%
23:00 -4°C° 0 mm 4 mps 752 mmHg 89%

1 December, Tuesday

Time Temperature Precipitation Wind Pressure Humidity
00:00 -4°C° 0 mm 4 mps 752 mmHg 89%
01:00 -4°C° 0 mm 4 mps 752 mmHg 88%
02:00 -3°C° 0 mm 4 mps 753 mmHg 88%
03:00 -4°C° 0 mm 3 mps 753 mmHg 89%
04:00 -4°C° 0 mm 3 mps 753 mmHg 91%
05:00 -5°C° 0 mm 3 mps 753 mmHg 93%
06:00 -5°C° 0 mm 3 mps 754 mmHg 93%
07:00 -6°C° 0 mm 3 mps 754 mmHg 94%
08:00 -6°C° 0 mm 3 mps 754 mmHg 94%
09:00 -6°C° 0 mm 3 mps 754 mmHg 92%
10:00 -5°C° 0 mm 3 mps 755 mmHg 90%
11:00 -5°C° 0 mm 3 mps 755 mmHg 88%
12:00 -4°C° 0 mm 3 mps 755 mmHg 88%
13:00 -3°C° 0 mm 2 mps 755 mmHg 88%
14:00 -3°C° 0 mm 2 mps 756 mmHg 87%
15:00 -3°C° 0 mm 2 mps 756 mmHg 89%
16:00 -4°C° 0 mm 2 mps 756 mmHg 90%
17:00 -4°C° 0 mm 2 mps 756 mmHg 91%
18:00 -4°C° 0 mm 2 mps 757 mmHg 91%
19:00 -2°C° 0 mm 1 mps 757 mmHg 91%
20:00 -2°C° 0 mm 1 mps 757 mmHg 91%
21:00 -2°C° 0 mm 1 mps 758 mmHg 92%
22:00 -3°C° 0 mm 1 mps 758 mmHg 92%
23:00 -3°C° 0 mm 1 mps 758 mmHg 92%

2 December, Wednesday

Time Temperature Precipitation Wind Pressure Humidity
00:00 -3°C° 0 mm 1 mps 758 mmHg 93%
01:00 -3°C° 0 mm 1 mps 758 mmHg 93%
02:00 -4°C° 0 mm 1 mps 758 mmHg 93%
03:00 -6°C° 0 mm 2 mps 758 mmHg 93%
04:00 -6°C° 0 mm 2 mps 758 mmHg 93%
05:00 -6°C° 0 mm 2 mps 758 mmHg 93%
06:00 -6°C° 0 mm 2 mps 758 mmHg 93%
07:00 -5°C° 0 mm 2 mps 758 mmHg 92%
08:00 -5°C° 0 mm 2 mps 758 mmHg 92%
09:00 -4°C° 0 mm 2 mps 758 mmHg 92%
10:00 -5°C° 0 mm 3 mps 757 mmHg 93%
11:00 -4°C° 0 mm 3 mps 757 mmHg 93%
12:00 -2°C° 0.1 mm 3 mps 757 mmHg 94%
13:00 -2°C° 0.1 mm 3 mps 757 mmHg 95%
14:00 -1°C° 0.1 mm 3 mps 756 mmHg 95%
15:00 -2°C° 0.2 mm 3 mps 756 mmHg 96%
16:00 -2°C° 0.2 mm 3 mps 756 mmHg 96%
17:00 -2°C° 0.2 mm 3 mps 756 mmHg 96%
18:00 -2°C° 0.1 mm 3 mps 756 mmHg 96%
19:00 -4°C° 0.1 mm 3 mps 756 mmHg 95%
20:00 -4°C° 0.1 mm 3 mps 756 mmHg 95%
21:00 -5°C° 0 mm 3 mps 756 mmHg 95%
22:00 -5°C° 0 mm 3 mps 756 mmHg 95%
23:00 -5°C° 0 mm 3 mps 756 mmHg 95%

3 December, Thursday

Time Temperature Precipitation Wind Pressure Humidity
00:00 -5°C° 0 mm 3 mps 756 mmHg 94%
01:00 -5°C° 0 mm 3 mps 756 mmHg 94%
02:00 -5°C° 0 mm 3 mps 755 mmHg 94%
03:00 -5°C° 0 mm 3 mps 755 mmHg 94%
04:00 -5°C° 0 mm 3 mps 755 mmHg 94%
05:00 -5°C° 0 mm 3 mps 755 mmHg 94%
06:00 -5°C° 0 mm 3 mps 755 mmHg 93%
07:00 -5°C° 0 mm 3 mps 755 mmHg 93%
08:00 -5°C° 0 mm 3 mps 755 mmHg 93%
09:00 -5°C° 0 mm 3 mps 756 mmHg 92%
10:00 -4°C° 0 mm 3 mps 756 mmHg 91%
11:00 -4°C° 0 mm 3 mps 756 mmHg 91%
12:00 -4°C° 0 mm 3 mps 756 mmHg 90%
13:00 -4°C° 0 mm 3 mps 755 mmHg 90%
14:00 -2°C° 0 mm 3 mps 755 mmHg 89%
15:00 -4°C° 0 mm 3 mps 755 mmHg 90%
16:00 -4°C° 0 mm 3 mps 755 mmHg 90%
17:00 -4°C° 0 mm 3 mps 755 mmHg 91%
18:00 -4°C° 0 mm 3 mps 755 mmHg 91%
19:00 -4°C° 0 mm 3 mps 755 mmHg 91%
20:00 -4°C° 0 mm 3 mps 755 mmHg 91%
21:00 -4°C° 0 mm 3 mps 755 mmHg 90%
22:00 -4°C° 0 mm 3 mps 755 mmHg 90%
23:00 -2°C° 0 mm 3 mps 755 mmHg 89%
Show more

We Need Your Consent

Meteoprog and our Service Providers may store and access personal data such as cookies, device identifiers or other similar technologies on your device and process such data to personalise content and ads, as well as provide social media features and to analyse the traffic.

  • Store and/or access information on your device

    Cookies, device identifiers or other information can be stored or accessed on your device for the purposes indicated above.

  • Personalised ads and content, ad and content measurement, audience insights, and products development

    Ads and content can be personalised based on a profile. More data can be added to better personalise ads and content. Ad and content performance can be measured. Insights about the audience who saw the ads and content can be derived. Such data can be used to develop or improve user’s experience, systems and software.

By clicking ‘I Agree’ you will allow the use of indicated cookies, device identifiers, web beacons or other similar technologies. Your settings can be changed in the browser on your device.

For certain purposes, legitimate interests may be relied on, rather than consent. You can read more about this in our Privacy and Cookie Policy.